NOAA NWS Hourly Roundups by Site

Regional Weather Roundup for Omaha, NE

To Select Another Site Choose from List

Select Site:  

000
ASUS43 KOAX 200110
RWRNE

WEATHER ROUNDUP FOR NEBRASKA
NATIONAL WEATHER SERVICE OMAHA NE
700 PM CST TUE NOV 19 2019

NOTES: SATELLITE DATA IS BEING USED TO AUGMENT CLOUD COVER ABOVE
       12000 FEET.
       "FAIR" INDICATES FEW OR NO CLOUDS BELOW 12,000 FEET WITH NO
       SIGNIFICANT WEATHER AND/OR OBSTRUCTIONS TO VISIBILITY.


NEZ001>004-019>022-054>056-200200-
NEBRASKA PANHANDLE

CITY           SKY/WX    TMP DP  RH WIND       PRES   REMARKS
SCOTTSBLUFF    FAIR      51  36  56 E12       29.67R
ALLIANCE       FAIR      43  33  68 SE10      29.69S
CHADRON        FAIR      40  33  76 NW3       29.66S
GORDON         FAIR      44  33  64 S7        29.69S
KIMBALL        FAIR      44  28  53 S8        29.72R
SIDNEY         FAIR      47  31  53 S12       29.70S
$$

NEZ057>060-069>072-079>082-200200-
SOUTHWEST NEBRASKA

CITY           SKY/WX    TMP DP  RH WIND       PRES   REMARKS
NORTH PLATTE   FAIR      46  30  53 SE10      29.75R
IMPERIAL       FAIR      47  29  49 SE10      29.73R
LEXINGTON      FAIR      49  32  51 SE9       29.78R
MCCOOK         FAIR      51  30  44 E9        29.74S
OGALLALA       FAIR      50  31  49 E8        29.72S
$$

NEZ005>010-023>029-035>040-094-200200-
NORTH CENTRAL NEBRASKA

CITY           SKY/WX    TMP DP  RH WIND       PRES   REMARKS
VALENTINE      FAIR      46  32  58 E10       29.76R
AINSWORTH      FAIR      42  33  71 E9        29.78S
BROKEN BOW     FAIR      47  26  44 SE7       29.78S
O`NEILL        FAIR      47  32  55 E9        29.83R
ORD            FAIR      44  31  60 E5        29.80R
THEDFORD       FAIR      48  30  50 SE6       29.77S
$$

NEZ041-046>049-061>064-073>077-083>087-200200-
SOUTH CENTRAL NEBRASKA

CITY           SKY/WX    TMP DP  RH WIND       PRES   REMARKS
GRAND ISLAND   FAIR      51  32  48 SE8       29.84S
AURORA         FAIR      47  33  58 SE7       29.84S
HASTINGS       FAIR      52  31  44 SE9       29.83S
HEBRON         FAIR      48  32  55 SE6       29.85R
HOLDREGE       FAIR      47  32  56 SE10      29.79R
KEARNEY        FAIR      47  31  53 SE10      29.81S
YORK           FAIR      50  32  50 S7        29.86R
$$

NEZ011>018-030>034-042>045-200200-
NORTHEAST NEBRASKA

CITY           SKY/WX    TMP DP  RH WIND       PRES   REMARKS
NORFOLK        FAIR      45  33  63 SE9       29.85R
ALBION         FAIR      46  32  59 E3        29.84R
BLAIR          MOCLDY    48  33  55 E7        29.88S
COLUMBUS       FAIR      47  34  60 E9        29.86S
FREMONT        FAIR      49  36  60 E6        29.88S
TEKAMAH        FAIR      40  30  67 E6        29.88S
WAYNE          FAIR      42  30  62 E7        29.87R
$$

NEZ050>053-065>068-078-088>093-200200-
SOUTHEAST NEBRASKA

CITY           SKY/WX    TMP DP  RH WIND       PRES   REMARKS
LINCOLN        FAIR      50  32  50 SE3       29.89R
OMAHA EPPLEY   MOCLDY    49  32  52 SE5       29.89R
BEATRICE       FAIR      52  34  50 E5        29.87S
FALLS CITY     FAIR      49  35  58 SE6       29.90R
NEBRASKA CITY  FAIR      54  35  49 SE7       29.90R
PLATTSMOUTH    FAIR      50  36  57 SE5       29.90R
$$

NEZ044-045-051>053-067-200200-
OMAHA AREA

CITY           SKY/WX    TMP DP  RH WIND       PRES   REMARKS
OMAHA EPPLEY   MOCLDY    49  32  52 SE5       29.89R
BLAIR          MOCLDY    48  33  55 E7        29.88S
FREMONT        FAIR      49  36  60 E6        29.88S
MILLARD        FAIR      51  36  56 CALM      29.89R
OFFUTT AFB     MOCLDY    52  34  50 E5        29.90R
PLATTSMOUTH    FAIR      50  36  57 SE5       29.90R
WAHOO          FAIR      47  34  61 E8        29.88R
$$


 

View Past Reports for Omaha, NE.

Products Courtesy of NOAA-NWS
NWS Information Parsing Script by Ken True at Saratoga Weather - Script by SE Lincoln Weather.